Other Surface Observations
Issued by NWS

Current Version | Previous Version | Text Only | Print | Product List | Glossary On
Versions: 1 2 3 4 5 6 7 8 9 10 11 12 13 14 15 16 17 18 19 20 21 22 23 24 25 26 27 28 29 30 31 32 33 34 35 36 37 38 39 40 41 42 43 44 45 46 47 48 49 50
906
SXUS52 KTAE 151710
OSOTAE
OSOTAE
North Florida/South Alabama/Southwest Georgia Weather Roundup
National Weather Service Tallahassee Florida
1200 PM EST THU NOV 15 2018

Note: "fair" indicates few or no clouds below 12,000 feet with no
significant weather and/or obstructions to visibility.

!FLZ017-115-028-034-025-151800
...North Florida...

CITY           SKY/WX    TMP DP  RH WIND       PRES   REMARKS
TALLAHASSEE    CLOUDY    48  46  93 W9        30.12F WCI  44
APALACHICOLA   CLOUDY    46  41  82 NW15G21   30.15S WCI  40
PERRY          CLOUDY    55  53  94 W8        30.10R
CROSS CITY     CLOUDY    59  57  92 NW8       30.07F
JACKSONVILLE   CLOUDY    55  49  80 W13       30.04F
$$

!FLZ112-006-005-002-011-151800
...Florida Panhandle...

CITY           SKY/WX    TMP DP  RH WIND       PRES   REMARKS
MARIANNA       CLOUDY    54  39  57 W14       30.17R
BONIFAY        NOT AVBL
PANAMA CITY NW CLOUDY    41  36  82 NW12      30.18S WCI  34
TYNDALL AFB    PTSUNNY   43  37  81 NW12      30.20S WCI  37
TYND DRONE APT NOT AVBL
DE FUNIAK SPR  NOT AVBL
EGLIN AFB      PTSUNNY   41  33  74 N15G21    30.19F WCI  33
DESTIN         PTSUNNY   43  34  70 N15       30.20F WCI  36
HURLBURT       PTSUNNY   42  33  70 NW16G22   30.19F WCI  34
CRESTVIEW      CLOUDY    38  32  79 N13       30.22F WCI  30
PENSACOLA      FAIR      43  32  65 N16       30.22F WCI  35
$$

!ALZ063-066-151800
...South Alabama...

CITY           SKY/WX    TMP DP  RH WIND       PRES   REMARKS
DOTHAN         CLOUDY    37  33  85 NW14      30.20S WCI  28
OZARK CAIRNS   CLOUDY    37  34  90 NW10      30.18S WCI  29
FT RUCKER HELI CLOUDY    36  35  93 NW7       30.18F WCI  31
RUCKER HELI 3  CLOUDY    36  34  92 NW10      30.17F WCI  28
RUCKER HELI 2  CLOUDY    35  35  96 NW7       30.17F WCI  30
FLORALA APT    CLOUDY    37  30  75 N8        30.23F WCI  31
ANDALUSIA      CLOUDY    38  32  79 NW12      30.21S WCI  30
TROY           CLOUDY    34  31  88 NW14      30.20S WCI  25
EUFALA         NOT AVBL
MOBILE         FAIR      42  28  57 NW8G21    30.27S WCI  37
$$

!GAZ120>161-151800
...Southwest and South Central Georgia...

CITY           SKY/WX    TMP DP  RH WIND       PRES   REMARKS
THOMASVILLE    CLOUDY    50  46  87 NW6       30.10F
BAINBRIDGE     CLOUDY    46  41  81 W10       30.15S WCI  41
MOODY AFB      CLOUDY    53  51  91 NW8       30.06F
VALDOSTA       CLOUDY    52  50  93 VRB3      30.07F
MOULTRIE       CLOUDY    50  46  87 W6        30.09S
BLAKELY        CLOUDY    39  36  87 NW10      30.16S WCI  32
ALBANY         CLOUDY    47  45  93 W13       30.12F FOG     WCI  41
TIFTON         CLOUDY    49  49 100 N5        30.07
FITZGERALD     CLOUDY    49  46  88 N7        30.10S
CORDELE        CLOUDY    48  43  84 N3        30.10S
AMERICUS       DRIZZLE   50  45  81 W12       30.10F
HOMERVILLE     CLOUDY    50  46  87 N6        30.07F
$$

!GMZ750-755-770-775-151800
...Coastal and Buoy Obs...

STATION/POSITION TIME  TEMP    WIND        PRES    VSBY  WAVE
                       AIR SEA DIR/SP/G                  HT/PER
                 (UTC) (F)     (DEG/KT/KT) (MB)    (MI)  (FT/S)
KEATON BEACH     1700   55     310/  8/ 10 1019.2S
CEDAR KEY        1600   60     320/  9/ 14 1018.6F
C TOWER          1700   53     310/ 22/ 25 1020.3F
APALACHICOLA BUO NOT AVBL
PANAMA CITY BUOY NOT AVBL
MOBILE BUOY      1700      76  330/ 21/ 27 1024.7
ORANGE BCH AL BU 1700   43                 1024.1
$$




USA.gov is the U.S. government's official web portal to all federal, state and local government web resources and services.